WAT494 KBNA-MHLM

Flight info

Callsign WAT494
Flight time N/A
Altitude 40000
Route MSL DCT MEI J31 LEV/N0459F390 A770 KEHLI UA770 MID UB753 BZE
Aircraft CL60/M-SADE3FGHIJ3J4J7P2RWXY/HB1D1

Departure

Time N/A
Airport Nashville International Airport (KBNA)

Arrival

Time 2026-04-22 22:05
Airport Ramón Villeda Morales International Airport (MHLM)
Time Latitude Longitude Altitude Speed Heading
2026-04-22 21:48 16.52528 -87.96637 21743 ft 366 kts 163°
2026-04-22 21:48 16.50100 -87.95811 21257 ft 362 kts 163°
2026-04-22 21:49 16.47679 -87.94988 20764 ft 359 kts 163°
2026-04-22 21:49 16.45288 -87.94173 20284 ft 356 kts 163°
2026-04-22 21:49 16.42918 -87.93368 19810 ft 352 kts 163°
2026-04-22 21:49 16.40592 -87.92580 19343 ft 349 kts 163°
2026-04-22 21:50 16.38259 -87.91788 18874 ft 346 kts 163°
2026-04-22 21:50 16.35975 -87.91013 18436 ft 342 kts 162°
2026-04-22 21:50 16.33706 -87.90241 18018 ft 339 kts 162°
2026-04-22 21:50 16.31457 -87.89475 17554 ft 337 kts 161°
2026-04-22 21:51 16.29209 -87.88705 17104 ft 335 kts 161°
2026-04-22 21:51 16.26981 -87.87942 16652 ft 333 kts 161°
2026-04-22 21:51 16.24767 -87.87184 16202 ft 332 kts 161°
2026-04-22 21:52 16.20390 -87.85689 15320 ft 328 kts 161°
2026-04-22 21:52 16.18207 -87.84946 14882 ft 326 kts 161°
2026-04-22 21:52 16.16070 -87.84217 14449 ft 323 kts 162°
2026-04-22 21:52 16.13940 -87.83491 14014 ft 321 kts 162°
2026-04-22 21:53 16.11792 -87.82761 13586 ft 319 kts 162°
2026-04-22 21:53 16.09680 -87.82043 13157 ft 316 kts 162°
2026-04-22 21:53 16.07605 -87.81338 12742 ft 314 kts 162°
2026-04-22 21:53 16.05515 -87.80628 12323 ft 312 kts 161°
2026-04-22 21:54 16.03461 -87.79931 11910 ft 309 kts 161°
2026-04-22 21:54 16.01391 -87.79228 11495 ft 307 kts 161°
2026-04-22 21:54 15.99384 -87.78548 11094 ft 304 kts 161°
2026-04-22 21:54 15.97360 -87.77862 10685 ft 301 kts 161°
2026-04-22 21:55 15.95372 -87.77188 10297 ft 298 kts 161°
2026-04-22 21:55 15.93404 -87.76521 9902 ft 296 kts 161°
2026-04-22 21:55 15.91447 -87.75861 9506 ft 294 kts 161°
2026-04-22 21:55 15.89471 -87.75194 9123 ft 292 kts 161°
2026-04-22 21:56 15.87539 -87.74547 8723 ft 290 kts 161°
2026-04-22 21:56 15.85604 -87.73901 8360 ft 287 kts 161°
2026-04-22 21:56 15.83699 -87.73263 7986 ft 282 kts 161°
2026-04-22 21:56 15.81825 -87.72634 7576 ft 280 kts 160°
2026-04-22 21:57 15.79967 -87.72011 7240 ft 274 kts 160°
2026-04-22 21:57 15.78160 -87.71403 6846 ft 271 kts 160°
2026-04-22 21:57 15.76360 -87.70799 6513 ft 266 kts 160°
2026-04-22 21:57 15.74590 -87.70203 6109 ft 257 kts 160°
2026-04-22 21:58 15.72885 -87.69794 5809 ft 247 kts 175°
2026-04-22 21:58 15.71190 -87.70048 5491 ft 240 kts 198°
2026-04-22 21:58 15.69770 -87.70908 5108 ft 232 kts 218°
2026-04-22 21:58 15.68561 -87.71968 4795 ft 221 kts 220°
2026-04-22 21:59 15.67445 -87.72956 4871 ft 193 kts 219°
2026-04-22 21:59 15.66415 -87.73859 4873 ft 187 kts 219°
2026-04-22 21:59 15.65411 -87.74735 4653 ft 187 kts 219°
2026-04-22 21:59 15.64420 -87.75604 4475 ft 183 kts 219°
2026-04-22 22:00 15.63426 -87.76475 4224 ft 183 kts 219°
2026-04-22 22:00 15.62456 -87.77325 4032 ft 177 kts 219°
2026-04-22 22:00 15.61517 -87.78148 3807 ft 173 kts 219°
2026-04-22 22:00 15.60598 -87.78951 3586 ft 172 kts 219°
2026-04-22 22:01 15.59673 -87.79761 3361 ft 171 kts 219°
2026-04-22 22:01 15.58746 -87.80571 3143 ft 171 kts 219°
2026-04-22 22:01 15.57816 -87.81383 2918 ft 171 kts 219°
2026-04-22 22:01 15.56903 -87.82182 2698 ft 171 kts 220°
2026-04-22 22:02 15.55977 -87.82991 2478 ft 171 kts 220°
2026-04-22 22:02 15.55062 -87.83792 2260 ft 171 kts 220°
2026-04-22 22:02 15.54151 -87.84592 2041 ft 170 kts 220°
2026-04-22 22:02 15.53234 -87.85395 1826 ft 170 kts 220°
2026-04-22 22:03 15.52327 -87.86188 1604 ft 169 kts 220°
2026-04-22 22:03 15.51413 -87.86987 1400 ft 169 kts 220°
2026-04-22 22:03 15.50513 -87.87774 1185 ft 168 kts 221°
2026-04-22 22:03 15.49607 -87.88566 972 ft 168 kts 220°
2026-04-22 22:04 15.48707 -87.89352 761 ft 163 kts 220°
2026-04-22 22:04 15.47862 -87.90084 531 ft 153 kts 220°
2026-04-22 22:04 15.47043 -87.90789 349 ft 148 kts 222°
2026-04-22 22:04 15.46258 -87.91487 157 ft 147 kts 221°
2026-04-22 22:05 15.45523 -87.92128 110 ft 124 kts 221°
2026-04-22 22:05 15.45173 -87.92429 113 ft 6 kts 248°
2026-04-22 22:05 15.45188 -87.92442 112 ft 4 kts 360°
2026-04-22 22:05 15.45257 -87.92488 111 ft 21 kts 309°
2026-04-22 22:06 15.45391 -87.92632 109 ft 26 kts 319°
2026-04-22 22:06 15.45535 -87.92622 109 ft 23 kts 43°
2026-04-22 22:06 15.45642 -87.92570 109 ft 14 kts 323°
2026-04-22 22:06 15.45651 -87.92606 109 ft 0 kts 221°